Flag for Saudi Arabia Weather past 2 weeks in Makkah, Saudi Arabia

Now
93 °F

Passing clouds.


Feels Like: 107 °F
Forecast: 76 / 106 °F
Wind: 5 mph from South

Location: Jeddah King Abdul Aziz International Airport

Current Time: Aug 4, 2015 at 11:23:44 PM

Latest Report: Aug 4, 2015 at 11:00 PM


Visibility: N/A

Pressure: 29.62 "Hg

Humidity: 59%

Dew point: 77 °F

Location of MakkahLocation

Historic Weather in Makkah — Graph

°F

Makkah temperature yesterday

Maximum temperature yesterday: 104 °F (at 12:00 PM)
Minimum temperature yesterday: 90 °F (at 5:00 AM)
Average temperature yesterday: 95 °F

Past Weeks' High & Low Weather Summary

 TemperatureHumidityPressure
High109 °F (Jul 26, 1:00 PM)89% (Jul 28, 5:00 AM)29.71 "Hg (Jul 28, 5:00 AM)
Low79 °F (Jul 21, 6:00 AM)8% (Jul 23, 3:00 PM)29.50 "Hg (Aug 1, 6:00 PM)
Average95 °F40%29.61 "Hg
* Reported Jul 20 10:00 PM — Aug 4 10:00 PM, Makkah, Weather by CustomWeather, © 2015

Note: Actual official high and low records may vary slightly from our data, if they occured in-between our weather recording intervals... More about our weather records

Advertising

Makkah weather history for previous 24 hours

 ConditionsComfort  
Time TempWeatherWind HumidityBarometerVisibility
10:00 PM
Tue, Aug 4
93 °FPassing clouds.7 mph56%29.62 "HgN/A
9:00 PM93 °FClear.9 mph49%29.59 "Hg10 mi
8:00 PM95 °FClear.5 mph44%29.59 "Hg10 mi
7:00 PM97 °FSunny.9 mph39%29.59 "Hg10 mi
6:00 PM97 °FSunny.9 mph37%29.56 "Hg10 mi
5:00 PM100 °FSunny.7 mph27%29.56 "Hg10 mi
4:00 PM102 °FSunny.12 mph21%29.59 "Hg10 mi
3:00 PM102 °FSunny.9 mph24%29.59 "Hg5 mi
2:00 PM100 °FSunny.16 mph35%29.59 "Hg4 mi
1:00 PM99 °FSunny.14 mph37%29.62 "Hg4 mi
12:00 PM97 °FSunny.9 mph44%29.62 "Hg4 mi
11:00 AM97 °FSunny.8 mph50%29.62 "Hg4 mi
10:00 AM95 °FSunny.7 mph50%29.65 "Hg4 mi
9:00 AM93 °FSunny.10 mph53%29.65 "Hg4 mi
8:00 AM91 °FClear.9 mph56%29.65 "Hg4 mi
7:00 AM90 °FSunny.9 mph67%29.65 "Hg10 mi
6:00 AM90 °FSunny.9 mph71%29.62 "Hg10 mi
5:00 AM90 °FPassing clouds.16 mph67%29.59 "HgN/A
4:00 AM90 °FPassing clouds.16 mph67%29.59 "HgN/A
3:00 AM91 °FPassing clouds.10 mph56%29.59 "HgN/A
2:00 AM91 °FPassing clouds.9 mph56%29.59 "HgN/A
1:00 AM91 °FPassing clouds.6 mph56%29.59 "HgN/A
12:00 AM91 °FPassing clouds.No wind56%29.62 "HgN/A
11:00 PM
Mon, Aug 3
91 °FPassing clouds.6 mph52%29.62 "HgN/A
Weather by CustomWeather, © 2015

See weather overviewHow to use our weather pages